WetterOnline ( https://www.wetteronline.de )

Wetter aktuell Dobin am See

Aktuelles Wetter: Goldberg (58m)

6-stündlich | Neueste Meldungen
Ortszeit Temperatur Wetter
So, 29.11. 1:00 1.2° C bedeckt
Sa, 28.11. 19:00 2.6° C bedeckt
Sa, 28.11. 13:00 2.8° C bedeckt
Sa, 28.11. 7:00 -1.9° C bedeckt
Sa, 28.11. 1:00 -0.4° C bewölkt
Fr, 27.11. 19:00 -0.0° C Nebel
Fr, 27.11. 13:00 1.5° C Nebel
Fr, 27.11. 7:00 0.4° C Nebel
Ortszeit Temperatur Wetter
So, 29.11. 2:30 1.8° C bedeckt
So, 29.11. 2:20 1.8° C bedeckt
So, 29.11. 2:10 2.0° C bedeckt
So, 29.11. 2:00 1.8° C bedeckt
So, 29.11. 1:50 1.8° C bedeckt
So, 29.11. 1:40 1.8° C bedeckt
So, 29.11. 1:30 1.6° C bedeckt
So, 29.11. 1:00 1.2° C bedeckt
So, 29.11. 0:30 0.7° C fast wolkenlos
So, 29.11. 0:00 1.3° C wolkenlos
Sa, 28.11. 23:30 1.6° C leicht bewölkt
Ortszeit Relative Feuchte Sichtweite
So, 29.11. 1:00 96% 13 km
Sa, 28.11. 19:00 94% 22 km
Sa, 28.11. 13:00 94% 30 km
Sa, 28.11. 7:00 96% 23 km
Sa, 28.11. 1:00 99% 21 km
Fr, 27.11. 19:00 100% 100 m
Fr, 27.11. 13:00 100% 100 m
Fr, 27.11. 7:00 100% 100 m
Ortszeit Relative Feuchte Sichtweite
So, 29.11. 2:30 96% 16 km
So, 29.11. 2:20 96% -
So, 29.11. 2:10 94% -
So, 29.11. 2:00 96% 23 km
So, 29.11. 1:50 96% -
So, 29.11. 1:40 95% -
So, 29.11. 1:30 96% 26 km
So, 29.11. 1:00 96% 13 km
So, 29.11. 0:30 94% -
So, 29.11. 0:00 93% 35 km
Sa, 28.11. 23:30 94% 26 km
Ortszeit Niederschlagsmenge Niederschlagsart
So, 29.11. 1:00 0.0 l/m2 in 6 Std. -
Sa, 28.11. 19:00 0.0 l/m2 in 12 Std. -
Sa, 28.11. 13:00 0.0 l/m2 in 6 Std. -
Sa, 28.11. 7:00 0.0 l/m2 in 12 Std. -
Sa, 28.11. 1:00 0.0 l/m2 in 6 Std. -
Fr, 27.11. 19:00 0.1 l/m2 in 12 Std. -
Fr, 27.11. 13:00 0.0 l/m2 in 6 Std. -
Fr, 27.11. 7:00 0.0 l/m2 in 12 Std. -
Ortszeit Niederschlagsmenge Niederschlagsart
So, 29.11. 2:30 0.0 l/m2 in 1 Std. -
So, 29.11. 2:20 keine Meldung -
So, 29.11. 2:10 keine Meldung -
So, 29.11. 2:00 0.0 l/m2 in 1 Std. -
So, 29.11. 1:50 keine Meldung -
So, 29.11. 1:40 keine Meldung -
So, 29.11. 1:30 0.0 l/m2 in 1 Std. -
So, 29.11. 1:00 0.0 l/m2 in 1 Std. -
So, 29.11. 0:30 0.0 l/m2 in 1 Std. -
So, 29.11. 0:00 0.0 l/m2 in 1 Std. -
Sa, 28.11. 23:30 0.0 l/m2 in 1 Std. -
Ortszeit Stärke Spitze Richtung
km/h Bft. km/h Grad Sektor
So, 29.11. 1:00 11 2 14 330° NW
Sa, 28.11. 19:00 2 1 11 270° W
Sa, 28.11. 13:00 4 1 7 50° NO
Sa, 28.11. 7:00 4 1 11 210° SW
Sa, 28.11. 1:00 4 1 11 160° S
Fr, 27.11. 19:00 4 1 7 180° S
Fr, 27.11. 13:00 4 1 7 130° SO
Fr, 27.11. 7:00 6 1 7 190° S
Ortszeit Stärke Spitze Richtung
km/h Bft. km/h Grad Sektor
So, 29.11. 2:30 2 1 6 40° NO
So, 29.11. 2:20 2 1 - 40° NO
So, 29.11. 2:10 4 1 - 40° NO
So, 29.11. 2:00 0 0 18 - -
So, 29.11. 1:50 2 1 - 350° N
So, 29.11. 1:40 4 1 - 140° SO
So, 29.11. 1:30 13 3 17 340° N
So, 29.11. 1:00 11 2 14 330° NW
So, 29.11. 0:30 7 2 11 360° N
So, 29.11. 0:00 9 2 15 350° N
Sa, 28.11. 23:30 11 2 14 350° N
Ortszeit Untergrenze Bedeckung Gattung
total tief tief mittel hoch
So, 29.11. 1:00 900 m 8/8 8/8 - - -
Sa, 28.11. 19:00 780 m 8/8 8/8 - - -
Sa, 28.11. 13:00 570 m 8/8 8/8 - - -
Sa, 28.11. 7:00 450 m 8/8 8/8 - - -
Sa, 28.11. 1:00 540 m 7/8 7/8 - - -
Fr, 27.11. 19:00 <30 m 8/8 0/8 - - -
Fr, 27.11. 13:00 <30 m 8/8 0/8 - - -
Fr, 27.11. 7:00 <30 m 8/8 0/8 - - -
Ortszeit Bedeckungsgrad in Achtel und Wolkenuntergrenze
So, 29.11. 2:30 8(870m)
So, 29.11. 2:20 8(870m)
So, 29.11. 2:10 8(870m)
So, 29.11. 2:00 8(870m)
So, 29.11. 1:50 8(870m)
So, 29.11. 1:40 8(900m)
So, 29.11. 1:30 8(900m)
So, 29.11. 1:00 8(900m)
So, 29.11. 0:30 1(1020m)
So, 29.11. 0:00 keine Wolken
Sa, 28.11. 23:30 2(660m)
Ortszeit Luftdruck NN (hPa) Tendenz (hPa in 3 Std.)
So, 29.11. 1:00 1028 - 0,1
Sa, 28.11. 19:00 1027 + 0,9
Sa, 28.11. 13:00 1026 + 0,1
Sa, 28.11. 7:00 1025 + 0,4
Sa, 28.11. 1:00 1024 + 0,3
Fr, 27.11. 19:00 1023 + 0,8
Fr, 27.11. 13:00 1023 + 0,1
Fr, 27.11. 7:00 1022 + 0,5
Ortszeit Luftdruck NN (hPa) Tendenz (hPa in 3 Std.)
So, 29.11. 2:30 1027 - 0,4
So, 29.11. 2:20 1027 keine Meldung
So, 29.11. 2:10 1027 keine Meldung
So, 29.11. 2:00 1027 - 0,5
So, 29.11. 1:50 1027 keine Meldung
So, 29.11. 1:40 1028 keine Meldung
So, 29.11. 1:30 1027 - 0,5
So, 29.11. 1:00 1028 - 0,1
So, 29.11. 0:30 1028 + 0,2
So, 29.11. 0:00 1028 + 0,2
Sa, 28.11. 23:30 1028 + 0,3
Ortszeit Schneehöhe (cm)
So, 29.11. 1:00 0
Sa, 28.11. 19:00 0
Sa, 28.11. 13:00 0
Sa, 28.11. 7:00 0
Sa, 28.11. 1:00 0
Fr, 27.11. 19:00 0
Fr, 27.11. 13:00 0
Fr, 27.11. 7:00 0
Ortszeit Schneehöhe (cm)
So, 29.11. 2:30 0
So, 29.11. 2:20 0
So, 29.11. 2:10 0
So, 29.11. 2:00 0
So, 29.11. 1:50 0
So, 29.11. 1:40 0
So, 29.11. 1:30 0
So, 29.11. 1:00 0
So, 29.11. 0:30 0
So, 29.11. 0:00 0
Sa, 28.11. 23:30 0
Link zu dieser Seite / Seite empfehlen

Das Wetter in ...